Regional Weather Roundup
Issued by NWS

Home | Current Version | Previous Version | Text Only | Print | Product List | Glossary Off
Versions: 1 2 3 4 5 6 7 8 9 10 11 12 13 14 15 16 17 18 19 20 21 22 23 24 25 26 27 28 29 30 31 32 33 34 35 36 37 38 39 40 41 42 43 44 45 46 47 48 49 50

484
ASUS45 KPSR 090110
RWRAZ

ARIZONA HOURLY REGIONAL WEATHER ROUNDUP
NATIONAL WEATHER SERVICE PHOENIX AZ
600 PM MST MON FEB 08 2016

NOTE: FAIR INDICATES FEW OR NO CLOUDS BELOW 12,000 FEET WITH NO
SIGNIFICANT WEATHER AND/OR OBSTRUCTIONS TO VISIBILITY.

AZZ001>003-036-090200-
NORTHWEST ARIZONA

CITY           SKY/WX    TMP DP  RH WIND       PRES   REMARKS
BULLHEAD CITY  CLEAR     73  25  16 N29       30.19F
KINGMAN        PTCLDY    62  22  21 NE13      30.31S
$$

AZZ004>008-015-016-018-090200-
NORTH CENTRAL ARIZONA

CITY           SKY/WX    TMP DP  RH WIND       PRES   REMARKS
GRAND CANYON   CLEAR     47  20  34 NE9       30.48S
WILLIAMS       PTCLDY    46  19  34 NE9       30.50R
PRESCOTT       PTCLDY    63  18  17 E3        30.34R
FLAGSTAFF      PTCLDY    45  18  34 E13       30.45S
PAYSON         PTCLDY    59  16  18 NE9       30.35S
PAGE           CLEAR     46  24  42 NE5       30.46F
$$

AZZ009>014-017-090200-
NORTHEAST ARIZONA

CITY           SKY/WX    TMP DP  RH WIND       PRES   REMARKS
WINSLOW        CLEAR     52  19  27 NW7       30.41F
SAINT JOHNS    PTCLDY    46  18  32 NW3       30.39S
WINDOW ROCK    CLEAR     46   0  14 E6        30.42R
SHOW LOW       PTCLDY    43  18  36 CALM      30.44R
$$

AZZ023-090200-
GREATER PHOENIX AREA

CITY           SKY/WX    TMP DP  RH WIND       PRES   REMARKS
PHOENIX        CLEAR     83  20   9 N5        30.09R
BUCKEYE        CLEAR     75  32  20 SE3       30.12S
GLENDALE       CLEAR     81  25  12 S3        30.11S
LUKE AFB       CLEAR     77  32  19 SW5       30.09S
DEER VALLEY    PTCLDY    78  24  13 W6        30.11R
SCOTTSDALE     CLEAR     79  23  12 CALM      30.13R
MESA-FALCON    CLEAR    N/A N/A N/A N6        30.11R
MESA-GATEWAY   CLEAR     79  23  12 W3        30.12R
CHANDLER       CLEAR     81  23  12 VRB5      30.10S
$$

AZZ027-028-090200-
SOUTHWEST MARICOPA COUNTY AND PINAL COUNTY

CITY           SKY/WX    TMP DP  RH WIND       PRES   REMARKS
CASA GRANDE    CLEAR     75  27  16 NW6       30.12S
GILA BEND      CLEAR     76  22  13 NE5       30.08S
$$

AZZ503-504-507>509-090200-
SOUTHEAST ARIZONA

CITY           SKY/WX    TMP DP  RH WIND       PRES   REMARKS
TUCSON         PTCLDY    76  17  11 E5        30.15S
DAVIS-MONTHAN  CLEAR     74  19  12 E7        30.13S
RYAN FIELD     CLEAR     75  28  17 NE8       30.14R
NOGALES        PTCLDY    70  14  11 NE7       30.18R
SIERRA VISTA   PTCLDY    63  13  14 SE10      30.25S
DOUGLAS        PTCLDY    63  15  15 E12       30.24R
SAFFORD        PTCLDY    68  21  16 CALM      30.21R
$$

AZZ020-021-025-026-031-090200-
SOUTHWEST ARIZONA

CITY           SKY/WX    TMP DP  RH WIND       PRES   REMARKS
YUMA           CLEAR     80  20  10 N14       30.11S
$$

CAZ031-033-041-043-047-048-061-090200-
SOUTHERN CALIFORNIA

CITY           SKY/WX    TMP DP  RH WIND       PRES   REMARKS
DOWNTOWN L.A.  CLEAR     84  29  13 CALM      30.06S
L.A. AIRPORT   CLEAR     79  26  14 SW7       30.07S
SAN DIEGO      CLEAR     80  31  16 NW7       30.07S
BURBANK        CLEAR     83  21  10 NE10      30.09S
ONTARIO        CLEAR     82  17   9 E7        30.10R
RIVERSIDE      CLEAR     80  18  10 NE12G23   30.13R
PALM SPRINGS   CLEAR     80  23  12 NW6       30.18R
EL CENTRO NAS  CLEAR     79  21  11 NW7       30.14S
IMPERIAL       CLEAR     80  26  13 NW6       30.12S
BLYTHE         CLEAR     79  21  11 N12       30.14S
NEEDLES        CLEAR     75  23  14 N18G26    30.20S
$$

NVZ020-UTZ003-090200-
SOUTHERN NEVADA-UTAH

CITY           SKY/WX    TMP DP  RH WIND       PRES   REMARKS
LAS VEGAS      CLEAR     71  26  18 NE6       30.29F
SALT LAKE CITY MOCLDY    36  29  75 NW5       30.62F WCI  32
$$

NMZ009-TXZ055-090200-
NEW MEXICO-WEST TEXAS

CITY           SKY/WX    TMP DP  RH WIND       PRES   REMARKS
ALBUQUERQUE    PTCLDY    52  20  28 N14       30.34R
EL PASO        PTCLDY    58  15  18 CALM      30.30S
$$


........................KEY........................
SKY/WX - SKY CONDITION/WEATHER
TMP    - TEMPERATURE IN FAHRENHEIT
DP     - DEW POINT IN FAHRENHEIT
RH     - RELATIVE HUMIDITY IN PERCENT
WIND   - DIRECTION AND SPEED IN MILES PER HOUR (MPH)
VRB    - VARIABLE WIND DIRECTION
PRES   - MEAN SEA LEVEL PRESSURE IN INCHES OF MERCURY
         F - FALLING PRESSURE   R - RISING PRESSURE
         S - STEADY PRESSURE
VSB    - VISIBILITY IN MILES
HX     - HEAT INDEX IN FAHRENHEIT
WCI    - WIND CHILL INDEX IN FAHRENHEIT
TC     - TEMPERATURE IN CELSIUS WHICH IS ALSO KNOWN AS
         TEMPERATURE IN CENTIGRADE
AFB    - AIR FORCE BASE
         LUKE AFB IS LUKE AIR FORCE BASE
         DAVIS-MONTHAN IS DAVIS-MONTHAN AIR FORCE BASE
NAS    - NAVAL AIR STATION
         EL CENTRO NAS IS EL CENTRO NAVAL AIR STATION
N/A    - NOT AVAILABLE





USA.gov is the U.S. government's official web portal to all federal, state and local government web resources and services.